GFSMW_850_dewp_177.txt.gz
Dewpoint
-3 -3 -3 -3 -2 -1 1 4 6 6 9 9 8 5 3 2 -1 -5 -5 -4 -4 -4 -5 -5 -6 -9 -14 -20 -21 -21 -21 -20 -19 -15 -11 -13 -12 -2 0 -4 1 -0 -10
-4 -3 -3 -3 -2 -1 5 7 8 9 10 10 8 5 4 -1 -2 -5 -4 -4 -4 -4 -5 -6 -9 -16 -18 -19 -19 -19 -18 -17 -16 -5 -5 -3 -5 -9 -12 -12 -11 -10 -10
-2 -3 -3 -3 -3 -1 6 8 9 9 9 9 8 6 4 3 -2 -4 -4 -3 -3 -4 -6 -9 -13 -14 -15 -16 -16 -16 -15 -13 -13 -13 -5 -7 -5 -6 -11 -9 -10 -8 -9
0 -2 -3 -3 -3 -1 6 9 9 9 10 8 7 7 4 2 -1 -5 -4 -4 -4 -5 -7 -10 -10 -10 -11 -11 -11 -10 -9 -9 -8 -7 -8 -7 -7 -3 -4 -5 -9 -10 -7
-1 1 -3 -3 -3 1 6 8 8 9 9 8 8 8 5 3 0 -3 -4 -4 -4 -6 -8 -7 -7 -7 -7 -7 -7 -7 -7 -7 -6 -7 -7 -13 -15 -17 -9 -6 -5 -9 -6
1 1 -2 -3 -3 3 7 7 8 8 8 7 7 5 4 3 1 -3 -4 -4 -5 -6 -5 -5 -6 -6 -6 -6 -6 -6 -6 -8 -10 -14 -18 -15 -9 -14 -13 -10 -9 -9 -9
2 2 -2 -3 -2 6 7 7 8 7 7 6 6 4 4 2 0 -3 -4 -5 -5 -4 -5 -5 -5 -5 -5 -6 -6 -7 -9 -16 -19 -16 -16 -16 -16 -16 -17 -16 -11 -13 -15
3 2 -3 -3 1 6 7 7 7 6 6 6 6 4 2 2 -1 -3 -4 -4 -4 -4 -4 -4 -4 -5 -5 -6 -8 -13 -19 -17 -16 -16 -15 -16 -16 -17 -18 -20 -21 -18 -16
3 1 -2 -1 7 6 7 7 6 6 6 6 5 3 5 1 -0 -2 -3 -4 -4 -4 -4 -4 -4 -5 -6 -8 -16 -18 -17 -16 -15 -15 -15 -17 -18 -19 -21 -24 -26 -21 -10
4 -1 -2 4 6 6 6 7 6 6 6 4 2 2 4 2 0 -2 -3 -3 -3 -3 -3 -3 -4 -5 -9 -17 -18 -16 -15 -15 -15 -17 -17 -19 -21 -24 -27 -28 -27 -22 -14
2 -0 3 5 6 6 7 6 6 6 5 1 2 3 4 3 -1 -2 -2 -2 -3 -3 -3 -5 -6 -10 -17 -18 -17 -16 -15 -15 -16 -17 -21 -23 -28 -30 -28 -28 -26 -22 -15
4 5 4 5 6 6 6 6 6 5 3 3 3 3 2 1 -1 -0 -2 -2 -3 -2 -4 -7 -11 -18 -18 -17 -14 -14 -14 -16 -18 -23 -27 -31 -30 -28 -25 -24 -20 -16 -12
5 5 5 6 6 6 6 6 5 3 3 2 3 2 2 0 -0 -1 -1 -1 -2 -4 -6 -12 -19 -18 -16 -15 -15 -16 -17 -18 -24 -30 -31 -30 -29 -26 -23 -21 -19 -16 -13
5 6 6 6 6 6 6 6 4 4 4 5 4 3 3 3 2 0 -2 -1 -3 -6 -12 -20 -17 -16 -15 -15 -16 -18 -20 -25 -31 -31 -30 -28 -24 -23 -22 -23 -22 -18 -15
5 5 5 5 5 5 5 4 3 3 4 4 4 4 3 3 1 -0 -1 -2 -5 -11 -19 -18 -16 -15 -15 -16 -19 -20 -29 -31 -30 -30 -25 -24 -24 -24 -24 -23 -22 -20 -14
5 5 5 5 5 6 6 5 4 3 4 4 4 3 3 2 1 0 -2 -5 -13 -20 -17 -16 -14 -14 -17 -19 -22 -31 -31 -31 -27 -24 -24 -23 -23 -23 -23 -23 -20 -11 -7
5 5 5 5 4 4 4 5 5 4 3 3 3 3 2 1 1 -2 -6 -14 -19 -17 -15 -15 -16 -18 -19 -25 -31 -31 -30 -26 -25 -24 -23 -23 -22 -22 -19 -17 -9 -7 -6
5 5 5 4 4 4 4 3 2 2 4 4 3 3 2 1 -3 -6 -13 -19 -17 -15 -15 -16 -18 -20 -29 -31 -31 -29 -27 -25 -23 -23 -23 -23 -22 -18 -15 -15 -9 -7 -7
4 5 5 5 5 4 4 4 4 4 4 4 3 3 1 -2 -6 -12 -18 -16 -15 -15 -16 -19 -22 -31 -30 -30 -28 -28 -26 -25 -24 -22 -21 -20 -19 -15 -16 -8 -6 -7 -7
4 4 4 5 4 3 3 3 4 4 4 4 4 2 -1 -4 -10 -17 -16 -15 -16 -17 -19 -25 -31 -30 -29 -28 -28 -27 -25 -26 -25 -22 -17 -11 -10 -14 -15 -6 -7 -9 -11
4 4 5 5 5 4 5 5 5 5 5 4 2 -1 -4 -10 -17 -16 -15 -15 -17 -21 -29 -31 -30 -28 -28 -28 -27 -27 -27 -25 -22 -18 -13 -11 -11 -18 -16 -12 -15 -12 -9
3 4 6 5 5 5 5 5 5 5 4 2 -1 -3 -8 -16 -16 -15 -16 -18 -22 -30 -31 -29 -28 -28 -28 -28 -28 -28 -25 -22 -20 -16 -13 -14 -18 -17 -18 -18 -15 -13 -9
5 5 6 5 5 5 5 5 4 4 2 -1 -5 -12 -17 -16 -16 -17 -19 -23 -30 -31 -29 -27 -27 -27 -28 -28 -27 -25 -23 -21 -16 -14 -15 -15 -11 -16 -18 -14 -10 -9 -9
4 5 5 5 4 4 4 4 3 -0 -3 -6 -13 -17 -17 -17 -17 -19 -25 -32 -31 -27 -26 -26 -26 -26 -26 -26 -25 -23 -19 -14 -13 -12 -14 -16 -17 -16 -11 -9 -9 -9 -10
2 3 4 4 4 4 3 1 -2 -4 -6 -12 -17 -17 -17 -17 -19 -25 -32 -31 -27 -25 -24 -25 -25 -25 -24 -24 -23 -22 -20 -18 -15 -15 -15 -15 -13 -11 -9 -9 -10 -11 -10
1 1 1 1 0 -1 -3 -4 -5 -7 -12 -17 -17 -17 -17 -18 -22 -32 -30 -27 -25 -23 -23 -24 -24 -23 -23 -23 -22 -21 -20 -19 -13 -14 -14 -12 -11 -10 -10 -11 -12 -11 -10

GFSMW_850_dewp_180.txt.gz
Dewpoint
-4 -4 -4 -3 -3 -3 -2 -2 -2 3 2 2 6 10 10 8 7 5 4 2 -3 -4 -5 -5 -5 -6 -8 -11 -15 -19 -20 -20 -18 -16 -12 -11 -8 -2 -2 -1 2 -3 -10
-2 -1 -1 -3 -2 -2 -3 -2 -0 3 5 5 5 9 8 8 7 5 5 3 -3 -4 -4 -5 -6 -8 -13 -19 -21 -21 -20 -18 -15 -6 -7 -4 -6 -9 -9 -9 -8 -10 -8
-1 -0 -0 -0 -3 -2 -3 -2 1 5 6 7 8 9 7 6 5 5 3 1 -2 -4 -5 -6 -8 -15 -19 -20 -19 -18 -17 -16 -11 -8 -6 -6 -4 -6 -10 -9 -10 -11 -11
-0 1 0 -0 0 -2 -3 -2 -0 6 7 7 8 8 7 6 5 3 3 1 -2 -4 -5 -8 -14 -16 -16 -16 -16 -15 -13 -12 -11 -10 -8 -5 -5 -3 -4 -5 -7 -7 -6
0 -0 0 0 -1 -2 -2 -2 2 6 7 7 7 8 7 6 4 3 2 -0 -2 -5 -8 -12 -12 -12 -12 -11 -10 -9 -9 -8 -8 -7 -8 -10 -15 -9 -7 -4 -5 -8 -6
-1 1 2 2 1 -1 -2 -1 4 7 7 7 7 7 7 5 5 3 1 -2 -4 -6 -9 -9 -8 -8 -8 -8 -7 -7 -6 -7 -9 -15 -18 -17 -14 -14 -14 -14 -13 -14 -13
2 3 3 3 2 -2 -1 3 5 6 7 7 7 7 6 5 4 1 0 -2 -5 -7 -7 -6 -6 -6 -6 -6 -6 -6 -8 -15 -20 -16 -15 -14 -15 -15 -16 -16 -17 -18 -20
2 3 3 2 -1 -2 0 4 5 6 7 6 6 6 5 5 2 -1 -1 -3 -5 -5 -5 -5 -6 -5 -5 -6 -6 -11 -18 -17 -15 -14 -14 -15 -15 -16 -16 -17 -23 -28 -29
3 5 4 -1 -2 -0 3 5 6 6 6 6 6 5 5 4 3 2 -1 -3 -3 -3 -5 -5 -5 -5 -5 -7 -14 -18 -16 -15 -14 -15 -15 -16 -17 -17 -21 -30 -30 -30 -23
4 4 -1 -1 1 3 6 5 6 6 6 6 6 5 3 2 2 1 -1 -2 -3 -3 -3 -3 -5 -5 -8 -15 -18 -16 -15 -14 -14 -15 -17 -17 -20 -29 -32 -31 -29 -27 -19
5 3 -0 2 4 6 5 6 6 6 6 6 5 3 2 2 2 0 -1 -2 -2 -3 -3 -4 -5 -8 -17 -18 -16 -15 -14 -15 -16 -16 -19 -27 -32 -31 -31 -28 -25 -23 -18
5 4 5 5 4 5 5 6 6 6 6 6 4 3 5 3 3 1 -0 -1 -2 -3 -3 -5 -9 -18 -18 -16 -14 -14 -15 -16 -18 -22 -31 -32 -31 -30 -25 -25 -24 -22 -17
5 5 5 5 5 6 6 5 5 5 5 3 4 5 4 2 0 0 0 -1 -2 -3 -4 -9 -18 -18 -16 -14 -14 -16 -17 -21 -27 -32 -32 -31 -27 -25 -25 -25 -24 -21 -20
5 6 5 4 6 6 6 5 5 5 4 4 4 4 3 1 -0 -1 -1 -1 -2 -5 -9 -18 -18 -16 -14 -14 -16 -18 -21 -30 -32 -31 -28 -27 -26 -26 -25 -25 -23 -22 -21
6 5 6 5 5 5 5 4 4 3 3 3 4 3 2 1 0 -0 -0 -2 -5 -10 -19 -18 -15 -14 -14 -16 -18 -25 -31 -31 -30 -27 -27 -26 -26 -25 -25 -25 -24 -21 -17
5 5 5 5 5 5 4 4 3 2 3 3 3 4 4 3 1 0 -1 -3 -8 -18 -17 -14 -13 -13 -15 -21 -28 -32 -31 -29 -26 -26 -25 -24 -24 -23 -22 -21 -22 -19 -8
5 5 5 5 5 4 4 3 2 3 3 3 3 4 4 3 1 -0 -3 -7 -17 -17 -15 -13 -14 -18 -21 -29 -32 -31 -28 -27 -27 -26 -24 -23 -21 -21 -21 -22 -22 -19 -12
5 5 5 5 5 4 4 4 4 4 4 3 2 3 2 2 -0 -4 -8 -16 -15 -14 -14 -16 -18 -21 -31 -31 -30 -28 -27 -27 -26 -26 -24 -22 -20 -19 -22 -22 -20 -18 -15
5 5 5 4 4 4 4 3 4 4 3 3 3 3 2 0 -3 -8 -14 -18 -16 -15 -15 -18 -22 -31 -31 -28 -27 -28 -28 -27 -26 -25 -23 -21 -21 -20 -19 -13 -14 -20 -20
4 5 4 4 4 3 4 4 4 3 4 4 3 2 0 -2 -7 -16 -17 -16 -15 -16 -17 -23 -32 -30 -27 -28 -28 -28 -28 -27 -26 -25 -23 -20 -16 -14 -15 -13 -14 -16 -16
3 3 4 4 4 4 3 3 3 4 4 3 3 1 -3 -5 -15 -17 -16 -15 -17 -19 -26 -31 -29 -27 -28 -28 -28 -28 -27 -27 -27 -26 -23 -19 -16 -18 -19 -19 -18 -14 -10
3 3 4 4 3 3 3 3 3 4 4 3 1 -3 -7 -13 -16 -16 -16 -17 -19 -28 -30 -27 -26 -27 -27 -27 -26 -26 -26 -26 -26 -25 -21 -18 -18 -18 -19 -20 -19 -15 -10
4 4 5 4 4 4 4 5 4 4 4 1 -2 -4 -11 -16 -15 -15 -16 -19 -29 -30 -27 -25 -25 -25 -24 -24 -24 -24 -24 -26 -26 -23 -20 -17 -16 -17 -19 -18 -16 -11 -11
5 5 4 5 5 5 5 5 4 4 2 -1 -3 -9 -15 -16 -16 -18 -20 -29 -30 -26 -25 -24 -23 -23 -22 -22 -22 -22 -24 -25 -23 -20 -17 -16 -16 -18 -17 -15 -14 -12 -11
4 4 5 5 5 5 4 4 4 3 -1 -4 -10 -16 -17 -17 -18 -21 -28 -30 -26 -24 -23 -23 -22 -21 -20 -20 -21 -22 -23 -24 -22 -20 -17 -15 -16 -16 -16 -14 -12 -11 -11
3 3 3 4 4 4 4 3 2 -1 -4 -8 -15 -17 -17 -17 -19 -25 -31 -26 -24 -23 -22 -21 -20 -20 -19 -20 -20 -21 -22 -22 -21 -15 -13 -14 -14 -13 -11 -11 -11 -11 -11

GFSMW_850_dewp_183.txt.gz
Dewpoint
-4 -2 -2 -2 -2 -3 -3 -3 -3 -3 -0 4 5 6 8 8 8 7 8 7 5 3 1 -2 -4 -3 -1 -1 -1 -3 -5 -9 -9 -12 -3 3 4 3 3 1 -2 -3 -9
-2 -2 -1 -2 -0 -2 -3 -3 -2 -3 -1 2 3 4 4 9 8 8 8 8 5 3 1 -2 -4 -4 -3 -2 -4 -6 -10 -15 -16 -12 -10 -2 -1 1 0 -1 -4 -7 -8
-1 -1 -1 -1 -0 0 -1 -2 -2 -2 -1 0 4 7 8 8 7 7 7 6 4 3 1 -2 -4 -6 -7 -10 -16 -19 -19 -19 -12 -9 -7 -4 -5 -8 -8 -8 -8 -10 -9
-1 -1 -2 -2 -2 -4 -3 -2 -2 -2 -1 -1 6 6 6 7 7 7 7 6 6 1 -0 -3 -6 -8 -13 -18 -19 -19 -18 -17 -14 -7 -6 -7 -6 -5 -6 -7 -6 -7 -7
-1 -1 -2 -2 -1 -2 2 1 -2 -2 -2 -1 6 7 7 7 7 7 6 6 3 -0 -1 -5 -8 -16 -18 -18 -18 -16 -14 -13 -12 -10 -9 -6 -7 -4 -5 -4 -5 -6 -7
-3 -4 -2 -0 -1 1 2 2 2 -2 -2 0 5 6 6 6 7 6 5 4 3 -0 -2 -9 -14 -15 -15 -15 -13 -11 -9 -8 -7 -8 -9 -13 -15 -10 -9 -6 -7 -13 -10
-2 -1 1 2 3 3 3 3 3 -2 -0 4 4 7 7 7 6 5 4 2 1 -1 -9 -12 -11 -11 -10 -9 -8 -7 -6 -7 -11 -16 -15 -14 -14 -15 -15 -15 -15 -17 -22
-1 0 3 3 4 3 3 4 3 1 3 4 5 7 6 7 6 4 3 1 -1 -5 -8 -8 -8 -6 -6 -6 -6 -7 -11 -18 -16 -14 -14 -15 -15 -15 -15 -16 -26 -29 -27
2 3 3 2 -1 1 3 3 3 3 5 4 6 6 6 6 5 4 2 -0 -1 -2 -4 -4 -4 -5 -5 -6 -7 -15 -18 -15 -14 -14 -15 -15 -16 -16 -27 -30 -30 -29 -28
3 5 3 1 3 5 3 2 3 5 5 6 6 6 6 6 5 3 2 1 -2 -3 -2 -3 -3 -4 -5 -8 -17 -16 -15 -14 -14 -15 -16 -18 -23 -31 -30 -29 -27 -26 -26
4 5 3 3 2 2 3 5 5 4 6 6 6 5 5 4 3 2 1 -2 -3 -2 -2 -3 -4 -5 -9 -16 -16 -15 -14 -14 -15 -16 -19 -29 -31 -30 -27 -25 -26 -26 -25
5 5 3 4 4 5 6 4 5 5 6 5 5 5 4 4 3 2 0 -0 -1 -1 -2 -3 -4 -9 -16 -16 -15 -14 -14 -15 -16 -19 -31 -31 -28 -26 -25 -26 -27 -26 -22
5 5 5 5 6 4 5 5 6 6 6 5 5 4 3 3 3 2 1 1 -0 -1 -1 -3 -9 -16 -16 -15 -14 -14 -16 -17 -22 -31 -30 -27 -26 -25 -27 -27 -26 -25 -24
5 5 5 5 5 4 5 5 5 5 5 4 3 3 3 3 2 2 1 0 0 -1 -3 -9 -17 -17 -15 -14 -16 -16 -17 -28 -31 -29 -26 -26 -26 -27 -26 -26 -26 -25 -22
5 6 5 5 6 5 5 4 5 4 4 3 3 3 4 4 3 2 2 1 -1 -4 -9 -17 -17 -15 -15 -16 -17 -22 -31 -29 -27 -26 -25 -26 -26 -26 -25 -26 -25 -23 -21
5 5 5 5 5 5 4 4 4 4 4 4 4 3 3 3 1 1 1 -1 -4 -11 -17 -17 -14 -14 -17 -19 -22 -30 -30 -27 -26 -25 -25 -26 -25 -24 -24 -24 -23 -22 -15
5 5 5 5 4 4 4 4 4 3 3 3 3 3 2 2 1 0 -1 -4 -10 -16 -15 -14 -14 -15 -17 -26 -31 -29 -26 -25 -26 -26 -25 -23 -21 -22 -22 -22 -22 -18 -16
5 5 5 5 4 4 4 3 2 3 2 2 2 2 2 1 0 -2 -6 -11 -14 -14 -13 -14 -17 -20 -29 -31 -28 -27 -26 -26 -26 -26 -24 -23 -20 -19 -20 -20 -21 -21 -21
4 4 4 5 4 4 3 3 2 3 3 4 4 3 3 2 0 -3 -5 -15 -15 -12 -15 -18 -23 -31 -30 -27 -27 -27 -27 -26 -26 -25 -25 -22 -19 -19 -17 -18 -19 -20 -21
3 4 4 4 4 4 3 4 3 3 4 3 3 3 3 1 -5 -9 -15 -12 -13 -16 -18 -24 -30 -28 -27 -27 -28 -27 -26 -26 -25 -25 -24 -21 -17 -17 -16 -16 -17 -20 -19
3 3 3 3 4 4 3 3 4 3 3 3 3 2 0 -4 -9 -14 -16 -16 -16 -19 -24 -30 -27 -26 -27 -27 -26 -25 -24 -24 -25 -25 -23 -21 -20 -18 -19 -19 -18 -18 -15
3 3 3 3 3 4 3 4 3 3 4 3 2 2 -3 -8 -15 -16 -16 -16 -18 -24 -29 -27 -26 -26 -25 -23 -22 -22 -23 -24 -25 -25 -24 -22 -20 -19 -19 -20 -20 -18 -15
3 4 4 3 3 3 3 3 3 4 3 3 1 -4 -10 -16 -16 -16 -16 -19 -24 -30 -26 -25 -24 -23 -21 -21 -20 -21 -22 -23 -24 -24 -24 -21 -19 -18 -19 -20 -18 -14 -14
4 4 3 3 3 3 3 3 3 4 3 2 -3 -8 -13 -16 -16 -16 -17 -21 -30 -27 -24 -23 -21 -20 -20 -20 -20 -20 -20 -21 -22 -22 -21 -20 -19 -17 -16 -16 -17 -16 -15
4 4 4 4 3 4 4 4 4 3 2 -1 -5 -11 -15 -15 -16 -19 -22 -30 -27 -24 -22 -21 -19 -19 -19 -19 -19 -19 -20 -20 -20 -20 -20 -20 -18 -16 -15 -16 -16 -15 -13
4 4 4 4 4 4 4 4 4 3 0 -4 -9 -15 -15 -16 -18 -20 -27 -28 -24 -22 -22 -20 -19 -19 -19 -19 -19 -19 -19 -18 -19 -20 -20 -19 -17 -15 -15 -14 -13 -12 -11

GFSMW_850_dewp_186.txt.gz
Dewpoint
-4 -4 -2 -2 -3 -4 -2 -3 -3 -3 -3 -3 -2 3 9 5 3 8 10 10 9 8 6 4 2 1 2 3 4 5 2 1 2 2 3 4 4 3 2 -0 -1 -4 -7
-4 -1 -1 -1 -2 -1 -2 -2 -2 -3 -3 -3 -2 1 6 6 7 6 8 8 8 8 5 4 2 1 3 4 3 1 -0 1 1 2 3 4 4 4 3 1 1 -6 -7
-1 -0 -1 -1 -1 -2 -1 -1 -2 -2 -2 -2 -1 2 6 8 8 8 7 7 7 7 7 7 1 -0 2 3 3 1 -2 -4 -5 -9 -6 -3 -3 2 2 2 -1 -6 -8
-2 -3 -4 -5 -4 -5 -5 -5 -4 -5 -3 -1 -1 -1 1 5 6 8 7 7 7 5 5 3 2 -1 -0 3 2 0 -2 -10 -16 -11 -7 -6 -7 -7 -5 -3 -6 -6 -5
-4 -4 -4 -3 -3 -3 -3 -3 -1 -1 -2 -1 -0 -1 1 3 5 6 8 7 7 6 4 4 3 -2 -3 -2 -4 -11 -15 -16 -15 -11 -9 -6 -6 -7 -8 -6 -5 -5 -5
-3 -3 -2 -0 -0 -0 1 2 2 3 2 2 2 -0 1 6 7 7 6 6 6 4 2 0 -3 -4 -7 -9 -13 -14 -15 -15 -12 -8 -6 -6 -7 -4 -7 -8 -5 -6 -7
-2 -1 1 3 3 4 3 4 3 3 3 6 4 1 1 6 5 6 7 6 6 5 2 0 -4 -6 -11 -13 -14 -14 -12 -11 -10 -9 -8 -9 -9 -8 -10 -8 -7 -12 -11
-0 1 2 4 4 4 2 2 3 4 5 7 6 5 5 6 4 5 6 7 6 5 2 -0 -2 -4 -9 -11 -10 -8 -7 -6 -7 -11 -14 -15 -14 -15 -15 -14 -15 -21 -18
3 3 4 4 2 1 -0 1 5 6 7 7 6 4 4 5 6 6 6 6 3 1 -1 -5 -7 -9 -7 -6 -5 -5 -6 -11 -15 -15 -14 -15 -15 -14 -19 -27 -28 -28 -27
2 4 4 4 4 6 7 6 6 6 7 6 3 4 4 5 5 6 6 5 4 2 -4 -9 -9 -6 -5 -3 -4 -10 -14 -14 -14 -15 -15 -15 -18 -27 -28 -27 -26 -26 -26
3 3 5 4 5 3 6 5 6 7 6 5 5 5 5 6 5 6 5 2 0 -2 -5 -5 -4 -3 -3 -4 -10 -15 -15 -15 -15 -16 -17 -25 -29 -28 -25 -26 -27 -27 -27
3 5 5 3 4 5 5 5 6 6 5 6 5 6 5 5 5 4 3 2 -1 -2 -2 -2 -2 -2 -4 -10 -15 -15 -15 -15 -15 -18 -29 -28 -26 -25 -26 -27 -27 -27 -26
4 5 5 5 6 6 6 6 5 4 4 5 6 5 5 4 4 4 3 1 -0 -1 -1 -2 -1 -4 -11 -14 -15 -14 -15 -17 -22 -30 -29 -26 -26 -27 -26 -26 -26 -26 -24
4 5 4 4 4 4 5 5 4 5 5 5 5 4 4 4 3 2 2 0 0 -1 -1 -1 -4 -11 -15 -14 -14 -16 -18 -24 -30 -27 -26 -26 -27 -26 -26 -26 -26 -24 -22
4 5 5 5 5 5 5 5 5 5 5 4 4 3 3 3 2 2 2 1 0 -1 -1 -4 -10 -12 -12 -14 -17 -18 -25 -30 -26 -24 -24 -26 -26 -26 -26 -25 -25 -25 -24
4 5 4 5 5 4 4 4 4 4 4 4 3 3 3 2 2 2 1 1 1 -0 -2 -9 -14 -16 -17 -18 -21 -28 -27 -24 -23 -26 -25 -24 -25 -25 -24 -24 -24 -23 -22
4 5 4 5 4 4 3 3 3 3 3 2 2 2 1 1 1 3 2 1 -0 -2 -11 -15 -16 -16 -19 -22 -28 -26 -23 -26 -26 -24 -23 -24 -22 -22 -23 -22 -22 -21 -20
3 4 5 5 4 3 3 3 3 3 2 2 2 3 2 3 3 2 1 0 -4 -12 -15 -15 -17 -17 -19 -27 -25 -25 -25 -26 -24 -24 -22 -21 -24 -25 -24 -21 -20 -20 -20
3 4 4 4 4 3 3 3 3 2 2 2 2 3 3 2 2 1 -1 -7 -14 -14 -14 -15 -16 -21 -29 -26 -25 -26 -26 -24 -24 -22 -24 -25 -24 -23 -21 -21 -20 -21 -21
2 4 4 4 4 4 3 2 2 1 2 2 2 2 2 0 -2 -4 -9 -13 -13 -13 -14 -15 -24 -27 -26 -26 -26 -26 -24 -24 -23 -24 -24 -25 -24 -20 -19 -19 -20 -22 -21
3 3 4 4 4 3 3 2 2 2 2 2 2 1 1 -1 -6 -10 -13 -13 -11 -14 -21 -27 -26 -26 -26 -26 -25 -23 -23 -23 -24 -24 -24 -23 -22 -20 -19 -19 -19 -17 -16
2 2 3 3 3 4 3 2 2 3 2 2 2 2 1 -0 -8 -13 -12 -12 -16 -21 -27 -28 -26 -26 -25 -23 -22 -21 -22 -22 -22 -22 -23 -22 -22 -21 -20 -19 -18 -18 -17
3 3 2 2 3 3 3 3 3 2 3 2 2 1 -4 -10 -12 -13 -14 -16 -19 -25 -29 -26 -26 -24 -22 -20 -20 -20 -20 -19 -19 -20 -20 -20 -21 -21 -19 -17 -17 -17 -16
3 3 3 2 2 3 3 3 3 3 3 2 1 -3 -9 -13 -16 -16 -16 -18 -24 -29 -25 -25 -22 -20 -19 -19 -19 -18 -18 -18 -19 -19 -19 -19 -20 -20 -19 -16 -15 -15 -14
4 3 3 3 3 3 3 3 3 3 3 2 -3 -8 -11 -16 -16 -16 -18 -22 -28 -26 -23 -22 -19 -19 -18 -18 -18 -18 -17 -17 -17 -17 -19 -19 -20 -20 -19 -16 -14 -14 -14
4 4 3 3 3 3 4 4 3 3 2 1 -2 -7 -16 -16 -16 -18 -21 -25 -24 -23 -22 -20 -19 -19 -19 -19 -18 -17 -16 -16 -15 -16 -18 -20 -21 -20 -17 -14 -13 -14 -15

GFSMW_850_dewp_192.txt.gz
Dewpoint
-4 -2 -1 -1 -1 -1 -2 -1 -1 -2 -2 -2 -3 -3 -3 -3 -3 -2 -0 3 4 10 9 8 6 2 4 6 6 7 6 6 6 6 5 4 4 5 3 1 -1 -3 -3
-2 -2 -4 -4 -4 -5 -5 -5 -4 -3 -3 -3 -2 -2 -2 -2 -2 -1 0 6 6 9 9 8 7 5 3 3 6 7 6 6 6 6 5 6 5 5 3 2 1 -0 -2
-3 -4 -5 -6 -7 -7 -8 -8 -7 -6 -5 -4 -4 -4 -1 -1 -0 1 -0 4 7 9 8 8 6 5 5 5 4 6 6 6 6 5 3 4 4 5 4 4 4 0 -4
-3 -4 -6 -7 -7 -6 -5 -1 -1 -1 -4 -6 -5 -4 -4 -3 -2 -2 0 7 6 7 7 8 8 8 5 3 3 1 4 6 6 5 3 -0 0 4 4 4 4 -2 -4
-3 -5 -6 -6 -5 -2 1 2 3 3 2 2 0 -2 -4 -5 -3 -1 0 5 7 7 8 8 8 7 5 6 3 2 1 4 5 5 2 -2 -6 2 2 2 -0 -3 -5
-4 -6 -6 -5 1 1 1 2 3 2 2 3 3 1 -1 -3 -3 -0 1 2 7 7 7 7 7 6 5 3 2 2 2 -1 2 3 2 1 -5 -2 -4 -0 -1 -4 -5
-6 -6 -2 2 2 3 3 3 4 5 4 1 3 3 2 4 4 -1 1 -0 7 7 7 7 7 7 6 3 4 3 3 4 3 3 3 2 -1 -5 -5 -7 -3 -5 -5
-5 -2 2 2 3 3 3 5 5 5 5 3 3 3 3 5 5 4 3 -0 3 4 6 5 7 6 5 4 2 4 4 3 2 -0 0 -4 -8 -7 -5 -7 -7 -6 -6
-5 0 2 2 4 4 4 4 4 5 4 2 4 4 4 5 5 5 6 2 5 5 7 6 6 5 4 2 2 2 1 -2 -7 -8 -7 -8 -6 -5 -6 -5 -8 -8 -7
-5 0 2 2 4 5 5 4 4 4 4 4 4 4 4 5 5 6 6 4 6 6 6 6 5 4 0 -1 -1 -2 -7 -10 -10 -8 -8 -7 -8 -9 -9 -9 -7 -7 -16
-3 1 2 4 4 4 4 4 4 4 4 5 5 5 5 5 6 6 5 5 6 6 6 5 -0 -2 -1 -0 -3 -5 -8 -8 -6 -5 -8 -14 -16 -17 -18 -17 -20 -26 -26
1 2 3 4 4 4 3 5 3 4 4 4 5 4 5 5 6 5 5 6 6 6 3 -1 -0 -5 -6 -5 -5 -5 -4 -4 -8 -14 -16 -17 -21 -26 -26 -25 -25 -25 -24
2 2 3 4 3 3 4 4 5 4 4 5 5 5 5 5 5 5 5 5 5 5 3 3 1 1 -3 -2 -2 -3 -6 -12 -15 -14 -16 -20 -23 -22 -25 -25 -23 -24 -26
2 2 3 4 4 3 3 3 4 5 5 5 5 4 5 5 5 5 5 4 5 4 3 1 1 -2 -2 -2 -4 -9 -12 -14 -17 -22 -24 -23 -25 -25 -23 -23 -25 -27 -28
3 3 2 3 4 3 4 4 4 4 5 5 5 4 5 4 4 4 3 3 2 1 -1 0 1 0 -1 -4 -8 -12 -13 -18 -23 -24 -24 -25 -24 -23 -23 -26 -26 -26 -26
3 3 2 4 5 3 4 3 3 4 4 5 5 4 4 3 4 4 3 3 1 -0 1 1 1 -2 -4 -8 -12 -14 -17 -24 -22 -22 -22 -21 -22 -23 -24 -24 -25 -25 -25
2 2 3 4 4 3 3 2 3 4 4 4 4 4 3 3 3 2 1 1 1 1 1 0 0 -2 -6 -9 -12 -17 -20 -21 -20 -21 -21 -21 -23 -24 -24 -24 -23 -23 -23
2 2 3 3 3 3 2 2 1 2 3 3 3 3 3 3 2 1 1 1 1 1 1 -1 -3 -9 -13 -16 -19 -20 -19 -20 -22 -21 -21 -23 -23 -24 -24 -22 -21 -21 -21
2 3 3 4 3 2 2 2 1 1 2 2 1 2 2 2 1 1 1 1 1 0 -2 -9 -10 -9 -13 -18 -19 -18 -20 -21 -20 -20 -22 -23 -22 -23 -22 -20 -20 -20 -20
2 3 3 3 3 2 2 2 1 1 1 0 1 1 1 0 0 0 0 0 0 -7 -10 -11 -13 -15 -20 -21 -19 -19 -19 -20 -20 -21 -23 -23 -21 -20 -19 -19 -19 -20 -20
2 2 3 2 2 2 2 1 1 1 0 0 0 -0 -0 0 0 0 0 -0 -6 -12 -13 -14 -18 -21 -20 -18 -19 -20 -21 -20 -22 -22 -20 -19 -18 -18 -19 -20 -20 -21 -21
3 2 2 2 2 2 1 1 1 1 0 0 -0 -0 0 0 0 -0 -1 -3 -9 -13 -15 -17 -20 -20 -20 -21 -20 -21 -21 -21 -20 -18 -17 -17 -18 -18 -19 -20 -21 -21 -21
3 2 2 2 2 2 2 1 1 1 1 1 1 1 0 -0 -2 -5 -9 -12 -12 -15 -19 -20 -22 -22 -22 -22 -21 -21 -20 -18 -17 -16 -17 -17 -17 -18 -19 -20 -21 -21 -18
3 2 2 2 2 2 2 1 1 1 1 1 0 0 0 -2 -2 -8 -12 -10 -6 -6 -12 -23 -23 -24 -22 -20 -20 -19 -17 -16 -15 -15 -15 -15 -16 -17 -19 -20 -20 -20 -19
3 3 2 2 2 2 2 2 1 1 1 1 -0 -1 -7 -10 -8 -6 -3 -4 -8 -16 -22 -23 -25 -22 -19 -19 -18 -17 -16 -16 -15 -14 -15 -15 -16 -17 -17 -18 -20 -20 -18
3 2 3 3 3 3 3 2 2 1 1 0 -1 -7 -8 -8 -6 -7 -9 -14 -18 -22 -23 -24 -22 -19 -18 -18 -18 -17 -17 -16 -15 -15 -15 -15 -14 -15 -15 -16 -18 -20 -19

GFSMW_850_dewp_195.txt.gz
Dewpoint
-3 -2 -3 -4 -5 -5 -5 -6 -6 -5 -4 -2 -3 -3 -3 -3 -3 -2 -2 -2 2 4 9 9 10 9 5 2 2 7 7 7 6 6 6 5 5 4 3 2 1 -0 -2
-3 -4 -4 -5 -5 -6 -7 -7 -7 -8 -8 -8 -5 -3 -3 -2 -3 -3 -1 1 1 5 7 8 8 7 4 3 4 4 7 7 6 6 5 5 5 5 4 2 0 -1 -2
-3 -4 -4 -5 -6 -7 -7 -7 -8 -8 -5 -3 -3 -4 -4 -3 -2 -2 -2 -1 3 7 7 8 8 7 4 3 5 5 6 6 6 6 5 5 4 4 4 3 2 1 -0
-3 -3 -4 -5 -7 -7 -6 -3 -1 -0 -0 1 3 1 -2 -4 -3 -2 -2 -1 1 7 7 7 8 6 4 5 6 4 4 1 4 6 6 3 2 4 4 4 4 3 -2
-6 -5 -6 -6 -6 -1 -0 0 0 -0 0 2 3 3 1 -1 -3 -4 -3 -0 2 4 4 6 8 6 5 5 4 4 4 4 2 2 4 5 0 2 2 3 3 2 -2
-6 -6 -6 -5 -2 -0 0 2 2 2 3 3 4 4 4 2 -0 -1 -4 -1 3 2 6 5 7 6 5 5 5 4 5 4 2 4 3 4 1 -2 0 1 2 -0 -3
-6 -6 -6 -4 0 1 2 3 3 3 4 4 5 5 4 4 3 0 -2 -3 2 3 4 5 6 6 7 6 4 5 5 5 6 5 5 4 2 -1 -3 -3 -1 -1 -4
-7 -6 -5 -3 2 2 3 4 4 4 4 4 5 4 5 4 3 1 4 4 -1 -1 3 6 6 6 6 6 5 6 6 5 5 4 4 3 1 1 1 -5 -5 -3 -4
-6 -5 -4 2 2 3 3 4 4 4 4 4 5 3 4 4 4 4 4 5 4 1 4 6 7 7 6 6 5 4 5 5 4 4 3 3 3 1 -4 -5 -5 -6 -5
-5 -4 0 2 3 4 4 3 4 4 4 4 4 4 4 4 4 5 5 4 6 4 5 7 6 6 6 6 5 4 4 4 4 3 2 -1 -1 -7 -7 -5 -5 -5 -7
-5 -2 1 2 4 3 3 3 3 3 3 3 4 5 5 5 5 5 4 3 6 5 6 6 6 6 6 4 3 3 2 -0 -1 -5 -8 -9 -6 -7 -6 -5 -6 -6 -7
-4 2 2 2 3 4 4 4 4 5 5 3 4 4 5 5 5 5 4 5 6 6 6 6 6 5 5 2 -0 0 0 0 -6 -8 -6 -5 -7 -11 -10 -8 -7 -12 -24
-1 2 3 2 2 4 3 3 3 3 4 4 4 4 5 4 5 5 5 4 5 5 6 5 5 4 1 -1 0 1 -0 0 -4 -5 -9 -14 -19 -22 -25 -24 -25 -24 -24
1 2 3 2 3 4 4 3 3 3 4 5 5 4 2 5 5 5 4 4 5 5 5 3 -0 -2 -2 0 -3 -3 -3 -2 -5 -16 -20 -22 -24 -24 -25 -24 -23 -26 -28
2 3 3 3 4 4 4 3 2 2 3 4 5 4 4 3 4 4 4 4 4 4 2 0 0 -2 -2 -3 -1 -4 -10 -14 -17 -19 -21 -23 -24 -23 -23 -26 -26 -24 -23
3 2 2 3 4 4 3 3 2 4 4 5 5 5 4 4 4 4 4 3 3 2 3 1 1 1 0 -4 -7 -11 -12 -15 -19 -23 -23 -24 -23 -24 -25 -23 -21 -20 -21
2 2 3 3 3 3 3 2 2 3 4 4 4 4 3 4 3 3 3 2 2 2 1 1 1 0 -4 -9 -12 -14 -17 -21 -23 -22 -23 -21 -21 -21 -20 -18 -18 -18 -20
2 2 3 3 3 2 2 1 1 3 3 4 3 3 3 3 2 2 2 1 1 1 1 1 0 -1 -10 -13 -13 -16 -19 -19 -19 -18 -18 -21 -22 -20 -19 -19 -18 -19 -20
2 2 3 3 2 2 1 1 1 1 2 2 3 2 2 2 2 1 1 1 1 1 1 -1 -7 -5 -3 -11 -15 -18 -18 -20 -20 -20 -21 -20 -20 -20 -19 -19 -19 -19 -20
3 2 2 2 2 2 2 1 1 1 1 1 1 1 1 2 1 1 1 1 0 0 -0 -1 -7 -10 -14 -17 -18 -18 -20 -20 -19 -20 -20 -20 -19 -19 -19 -18 -19 -20 -20
3 2 2 2 2 2 1 1 0 0 -0 0 0 0 -0 0 1 0 0 0 0 -2 -5 -7 -10 -15 -18 -18 -18 -19 -18 -17 -19 -21 -20 -19 -19 -18 -18 -19 -20 -20 -20
2 2 2 2 2 1 1 1 1 -0 -0 -0 -0 -0 -0 -0 -0 -0 -0 -4 -7 -9 -10 -13 -17 -17 -17 -18 -18 -18 -18 -19 -20 -19 -17 -17 -17 -18 -17 -18 -18 -19 -19
3 2 2 2 2 1 1 1 0 0 -0 0 -0 -0 -0 -0 -0 -0 -1 -5 -12 -13 -17 -19 -19 -17 -17 -19 -19 -19 -21 -20 -18 -16 -17 -16 -16 -16 -15 -16 -17 -18 -19
3 2 2 2 2 1 1 1 1 1 1 0 0 -0 -0 -0 -1 -3 -9 -12 -14 -16 -19 -15 -9 -15 -20 -19 -20 -21 -19 -17 -16 -16 -15 -15 -15 -14 -15 -16 -17 -17 -18
2 2 2 2 2 1 1 1 1 1 1 1 0 -0 -2 -5 -8 -11 -12 -13 -14 -6 -6 -9 -11 -16 -21 -20 -20 -18 -16 -16 -15 -15 -15 -16 -15 -14 -14 -15 -15 -15 -17
2 2 2 3 2 2 2 1 0 0 0 0 -1 -3 -3 -5 -10 -8 -3 -1 -4 -8 -11 -20 -22 -21 -19 -19 -18 -16 -16 -16 -15 -16 -16 -16 -15 -13 -13 -13 -13 -13 -15

GFSMW_850_dewp_201.txt.gz
Dewpoint
-2 0 -0 -1 -2 -2 -3 -3 -7 -8 -8 -8 -8 -7 -2 0 3 -5 -3 -2 1 -1 -2 -2 2 6 9 10 9 9 7 7 8 8 8 8 8 8 8 8 7 7 6
-3 -1 -0 -1 -1 -1 -1 -5 -7 -7 -8 -7 -3 -2 -2 -0 1 4 -0 -3 -2 -1 -2 -1 3 3 9 9 9 8 7 7 7 5 5 6 6 6 5 5 5 4 3
-3 -3 -2 -2 -2 -2 -3 -3 -5 -5 -5 -2 -0 1 1 1 2 3 7 0 -3 -3 -0 4 2 4 8 8 8 7 6 7 6 6 6 6 5 5 5 4 2 2 1
-6 -6 -5 -5 -4 -3 -4 -4 -4 -5 -4 -0 2 4 4 4 4 5 5 6 5 3 2 6 3 5 6 7 8 7 6 6 7 6 5 4 4 4 4 4 3 1 1
-7 -6 -6 -5 -4 -4 -4 -3 1 3 2 2 3 4 4 4 4 4 4 5 6 8 7 8 8 5 6 7 7 7 6 6 5 6 6 5 4 3 3 3 3 2 1
-6 -6 -5 -5 -4 -4 -2 -0 3 4 5 5 5 5 4 4 4 4 5 4 6 6 7 8 7 6 6 6 6 7 6 5 4 6 6 5 4 4 2 2 2 2 1
-5 -5 -4 -4 -3 1 2 3 3 4 5 5 5 5 4 4 5 4 4 4 5 6 7 6 8 6 6 6 7 7 6 5 6 7 6 6 4 3 2 1 1 1 0
-5 -5 -4 -4 -2 3 3 3 3 4 5 5 3 3 3 4 4 4 4 5 4 6 6 5 7 6 7 7 7 6 7 7 7 7 6 6 4 4 3 1 -2 -1 -0
-5 -5 -4 -1 1 3 3 3 4 4 5 5 5 5 4 3 3 5 5 4 4 5 6 6 7 6 7 7 7 7 6 6 7 7 6 6 5 4 2 0 -3 -4 -2
-5 -5 -1 2 2 2 3 3 3 4 4 4 4 5 5 3 4 5 4 4 5 5 5 5 7 6 7 7 7 6 5 5 7 6 6 6 4 3 0 0 -1 -1 -2
-6 -4 1 2 2 2 3 3 3 4 4 4 3 4 3 4 4 4 4 4 5 6 5 5 6 7 7 6 7 6 6 6 6 6 6 6 5 2 4 3 2 1 -2
-5 -3 2 3 3 3 3 3 3 4 3 2 2 3 4 3 3 4 4 4 5 5 4 4 6 6 6 7 7 6 6 6 6 6 5 5 4 4 3 3 1 -2 -5
-5 -2 3 3 3 2 3 3 3 2 1 1 2 3 4 3 4 4 5 4 5 5 4 5 5 5 6 6 6 6 6 5 5 5 4 3 2 1 -1 -5 -5 -6 -4
-5 -2 3 3 3 3 3 3 3 2 2 3 3 4 4 3 4 4 4 4 4 4 4 5 4 5 5 6 6 5 5 5 4 4 3 -0 -0 -5 -7 -6 -5 -5 -6
-5 -2 3 3 2 2 3 3 2 2 3 3 4 4 3 3 3 3 4 4 4 4 4 4 5 5 6 6 5 5 5 3 2 0 -0 -1 -6 -7 -9 -11 -13 -19 -23
-4 -1 3 2 2 2 2 2 1 2 3 4 4 4 3 3 3 2 2 3 3 4 4 4 5 5 5 5 4 3 1 1 1 1 -2 -8 -18 -19 -18 -19 -21 -24 -23
-4 1 2 2 2 2 2 1 1 1 2 3 3 3 3 3 3 2 2 2 3 3 3 4 5 4 3 1 1 1 1 0 -0 -1 -7 -20 -22 -22 -23 -22 -22 -20 -20
-4 3 2 2 2 2 2 1 1 1 2 2 3 3 3 3 3 2 2 1 2 2 2 3 2 2 1 1 1 0 -2 -3 -6 -14 -19 -21 -22 -23 -21 -19 -18 -18 -19
1 3 2 2 2 2 1 1 1 1 1 2 2 2 2 2 2 2 1 1 2 1 1 0 -0 -1 -0 -3 -3 -3 -4 -8 -14 -18 -20 -21 -21 -18 -18 -18 -18 -18 -19
2 3 2 2 2 1 1 1 1 0 1 1 1 1 1 2 2 2 1 0 1 0 -0 -0 -0 -2 -9 -12 -13 -15 -16 -18 -20 -20 -19 -18 -18 -17 -17 -17 -18 -18 -18
1 2 2 2 2 1 1 1 0 0 -0 -0 -0 -0 0 1 1 1 0 0 0 -0 -2 -8 -11 -10 -14 -15 -17 -19 -20 -20 -19 -20 -19 -18 -17 -17 -16 -16 -17 -16 -16
0 2 2 2 2 1 1 1 0 0 -0 -1 -1 -1 -0 -0 0 0 -0 -0 -0 -0 -2 -1 -4 -13 -15 -16 -17 -17 -17 -18 -19 -19 -17 -16 -16 -16 -17 -16 -15 -14 -14
-0 2 2 2 2 1 1 1 0 -0 -0 -0 -1 -1 -1 -0 -0 0 -0 -1 -1 -1 -2 -9 -13 -15 -15 -15 -16 -16 -17 -19 -18 -14 -6 -8 -15 -15 -14 -14 -13 -14 -14
-0 2 2 2 2 1 1 1 1 -0 -1 -0 -1 -1 -1 -1 -1 -1 -1 -2 -5 -8 -5 -4 -9 -16 -16 -14 -9 -8 -14 -11 -7 -9 -15 -15 -14 -14 -14 -15 -14 -13 -14
-1 2 2 2 2 1 1 1 1 0 -0 -1 -1 -1 -1 -2 -3 -5 -6 -8 -11 -16 -15 -13 -8 -7 -15 -9 -4 -5 -5 -5 -12 -15 -14 -15 -16 -16 -16 -15 -14 -13 -12
-2 2 2 2 2 2 1 1 0 0 -0 -0 -1 -1 -1 -2 -6 -10 -11 -10 -8 -9 -13 -13 -11 -13 -13 -5 -3 -3 -9 -15 -15 -15 -15 -17 -17 -16 -16 -15 -14 -12 -11

GFSMW_850_dewp_204.txt.gz
Dewpoint
-2 -1 -1 -1 -3 -3 -1 -2 -4 -6 -7 -7 -7 -8 -8 -6 -1 2 -0 -3 0 6 5 2 1 1 5 9 9 8 9 8 8 9 9 8 7 7 8 7 8 8 7
-3 -2 -1 -1 -1 -1 -1 -2 -4 -6 -6 -5 -3 -3 -4 -4 -4 -3 1 4 1 5 7 4 2 5 8 7 7 7 8 8 7 8 8 6 7 8 7 7 7 7 7
-4 -3 -3 -3 -3 -4 -3 -3 -3 -4 -6 -5 -1 1 1 0 0 -1 -2 2 5 2 7 8 5 6 8 8 5 8 8 7 8 8 6 6 6 6 6 6 6 5 6
-7 -7 -6 -6 -6 -5 -5 -3 -4 -4 -2 0 3 4 4 4 3 3 5 5 4 4 4 6 7 8 8 8 5 8 7 8 7 8 6 6 5 5 4 4 4 5 4
-6 -6 -5 -5 -5 -4 -4 -4 1 2 1 2 4 4 5 5 4 3 4 3 4 5 5 5 6 7 7 8 7 8 8 7 7 8 7 6 5 5 4 4 4 3 3
-6 -5 -5 -5 -4 -4 -4 1 3 3 3 3 4 4 4 4 3 3 3 3 4 4 5 5 6 6 6 7 8 7 7 6 7 7 7 6 5 4 4 3 4 3 3
-5 -5 -5 -5 -4 -2 -0 1 3 3 3 4 4 4 3 3 3 3 4 3 4 3 5 5 5 6 6 7 7 7 7 7 7 7 7 6 6 4 5 3 3 3 2
-5 -5 -5 -4 0 2 2 2 2 3 3 4 4 4 4 4 3 3 3 3 4 4 4 5 5 5 6 6 6 7 7 7 7 7 6 7 6 5 5 3 1 1 1
-5 -5 -5 -0 2 2 2 1 2 2 3 3 4 4 4 5 5 4 4 4 4 4 5 4 5 6 6 6 6 6 6 7 6 6 6 6 5 5 4 3 3 2 0
-5 -5 -4 2 2 2 1 2 2 3 3 3 3 3 3 3 4 4 4 5 4 4 4 5 4 6 6 6 6 6 6 6 6 6 6 6 6 5 4 4 1 -2 -4
-5 -5 -4 1 2 1 1 2 3 3 2 2 2 2 2 2 4 3 2 3 3 4 4 5 5 5 6 5 6 6 6 6 6 6 6 6 6 6 5 3 -0 -1 -1
-5 -5 -3 1 2 2 2 3 3 2 2 1 1 2 1 3 4 3 4 3 4 4 5 5 5 4 6 5 5 5 6 6 6 6 6 6 6 5 3 2 -0 1 2
-5 -5 -3 1 2 2 3 3 3 2 1 2 3 3 3 4 3 3 4 4 4 4 5 5 5 4 6 6 5 5 6 6 6 6 5 5 5 5 4 3 2 2 0
-4 -4 -3 1 2 2 2 2 2 1 1 3 3 3 3 4 3 3 4 3 5 4 4 4 4 5 5 5 5 5 5 5 5 5 5 4 4 3 3 1 1 -3 -6
-4 -4 -3 2 2 2 2 2 1 1 2 3 3 3 4 3 3 3 3 3 4 4 4 4 4 5 6 5 5 5 5 5 5 4 4 3 2 2 0 -5 -6 -6 -5
-4 -4 -2 2 2 2 2 2 1 1 2 2 3 3 3 3 3 2 2 2 3 4 3 4 4 5 4 5 5 5 5 4 4 3 1 1 -1 -6 -7 -7 -8 -11 -16
-4 -3 2 2 2 2 2 1 1 1 1 2 2 3 3 3 3 2 2 2 2 3 3 3 4 5 4 5 4 5 3 2 1 1 -1 -6 -10 -15 -18 -21 -22 -23 -23
-4 -1 2 2 2 2 1 1 0 1 1 1 2 2 2 2 2 2 1 1 1 1 2 1 2 3 3 2 2 2 1 1 -3 -6 -6 -6 -14 -21 -20 -21 -20 -19 -19
-4 -1 2 2 2 1 1 1 -0 0 1 1 1 1 1 1 1 1 1 1 1 1 1 0 1 1 1 1 1 1 1 -0 -1 -4 -12 -20 -22 -22 -21 -19 -18 -19 -19
-4 -3 2 2 2 1 1 1 -1 -0 0 0 0 1 1 1 1 0 0 0 0 0 0 1 1 0 -1 -1 -1 -2 -4 -5 -13 -18 -20 -21 -20 -18 -18 -18 -18 -17 -16
-4 -3 2 2 2 1 0 0 -0 -0 -0 -0 -0 0 0 1 0 -0 -0 -0 0 -0 -1 -0 -1 -1 -3 -9 -10 -8 -10 -14 -18 -20 -19 -18 -17 -17 -17 -17 -16 -15 -11
-4 -3 2 2 2 1 0 0 -1 -0 -0 -1 -1 -1 -0 -0 -0 -0 -0 -0 -0 -0 -2 -5 -8 -12 -14 -16 -16 -17 -19 -20 -20 -19 -18 -17 -16 -15 -15 -13 -6 -7 -12
-4 -4 1 2 2 1 1 0 -0 -0 -1 -1 -1 -1 -1 -1 -1 -0 -1 -1 -1 -4 -7 -9 -15 -16 -15 -16 -16 -17 -17 -18 -19 -17 -13 -11 -16 -15 -8 -5 -12 -13 -13
-4 -4 0 2 2 1 1 1 -1 -1 -1 -1 -1 -1 -1 -1 -1 -1 -1 -1 -2 -2 -4 -10 -14 -15 -16 -16 -16 -17 -17 -17 -13 -6 -6 -8 -9 -7 -11 -14 -14 -14 -13
-4 -4 -1 2 2 2 1 1 0 -0 -0 -1 -1 -1 -1 -1 -2 -2 -2 -3 -3 -5 -9 -15 -17 -13 -13 -12 -11 -12 -6 -4 -6 -11 -11 -10 -9 -13 -16 -16 -16 -15 -14
-4 -4 -2 2 2 2 1 1 1 0 -0 -0 -1 -1 -1 -2 -5 -9 -10 -12 -12 -10 -6 -5 -5 -11 -6 -3 -2 -1 -1 -4 -9 -12 -13 -13 -16 -17 -17 -18 -17 -16 -14

GFSMW_850_dewp_207.txt.gz
Dewpoint
-1 -1 -0 -2 -4 -4 -4 -3 -4 -4 -4 -4 -5 -7 -8 -8 -7 -5 -3 -2 2 3 5 7 4 2 -2 -2 4 7 7 9 8 9 8 9 9 9 8 8 7 7 8
-3 -3 -2 -2 -2 -2 -2 -5 -3 -2 -3 -4 -4 -2 -2 -3 -4 -5 -4 -3 -1 2 5 6 6 6 4 3 4 7 7 9 8 8 8 8 8 8 8 8 6 7 8
-4 -4 -4 -5 -5 -6 -6 -5 -5 -4 -4 -2 1 1 2 2 1 -0 -0 -0 -0 1 4 5 6 7 7 6 6 7 7 8 7 8 7 6 7 7 8 8 7 7 7
-7 -7 -6 -6 -5 -5 -5 -4 -5 -5 -1 2 2 2 3 4 3 3 2 1 3 4 4 4 5 6 7 7 7 7 6 7 5 7 8 7 7 6 5 6 7 7 7
-6 -5 -5 -5 -5 -5 -5 -3 -2 -2 1 3 3 3 4 4 4 4 4 2 2 3 5 4 4 5 5 6 7 7 8 6 7 6 7 7 6 6 5 4 4 5 5
-6 -5 -5 -6 -6 -5 -1 0 1 1 2 3 3 3 3 3 3 3 3 3 3 3 3 4 4 6 5 5 5 6 7 7 7 6 6 7 6 6 5 5 4 4 4
-5 -5 -6 -6 -4 0 1 1 1 1 2 2 2 3 3 4 4 3 3 2 3 2 3 3 4 5 6 5 5 5 6 5 7 7 7 6 7 5 5 5 4 3 3
-5 -5 -5 -4 0 1 1 0 1 2 2 2 3 3 4 4 4 4 5 4 3 3 3 3 3 4 5 5 5 6 5 6 6 7 7 7 6 6 5 5 5 4 3
-5 -5 -5 -3 1 1 1 0 1 1 2 2 2 2 3 3 4 4 5 5 4 4 4 3 4 3 4 5 5 5 6 6 6 5 6 6 6 6 6 6 5 4 3
-5 -5 -5 -2 -2 0 1 0 1 2 2 2 1 2 2 2 2 2 3 4 4 3 4 5 3 4 4 5 5 5 5 5 5 5 6 6 6 6 5 5 4 4 2
-5 -5 -5 -4 -3 1 1 1 3 3 2 1 1 0 1 1 1 1 4 4 3 3 3 4 4 4 4 5 5 5 5 5 5 4 6 6 6 6 5 5 4 2 -0
-6 -5 -4 -4 -3 1 1 0 2 2 1 1 1 2 3 2 2 3 3 3 3 4 3 4 4 4 5 5 5 4 5 5 5 6 6 6 5 6 6 5 5 4 3
-6 -4 -4 -4 0 2 2 2 2 1 0 2 2 2 2 3 3 3 2 3 4 4 4 4 4 4 5 5 6 4 5 5 6 6 6 6 5 5 5 4 3 1 -0
-5 -4 -4 -4 2 2 2 2 1 -0 1 2 3 3 3 3 3 3 2 3 3 3 4 3 3 4 5 5 4 5 5 5 5 5 5 5 5 4 5 4 3 2 0
-6 -5 -4 -1 2 2 2 0 1 0 1 2 2 3 3 3 3 3 2 2 3 4 4 4 4 5 4 5 5 5 5 5 5 5 4 4 5 4 4 4 3 2 1
-6 -5 -3 2 2 2 1 1 0 0 1 1 2 2 3 2 3 2 2 2 3 3 3 3 3 4 5 4 4 5 5 5 5 3 4 3 3 3 2 2 -2 -4 -5
-7 -5 -2 -0 2 1 1 1 -0 -1 1 1 1 2 2 3 2 2 2 2 2 2 3 3 4 4 5 5 5 5 4 5 4 4 4 3 2 -1 -6 -7 -6 -7 -11
-8 -5 -3 0 2 1 1 1 -1 -1 0 1 1 2 2 2 2 2 2 1 1 1 2 2 2 3 3 3 4 4 4 4 2 2 1 1 -4 -13 -16 -19 -21 -22 -22
-7 -4 -3 0 2 1 1 -0 -1 -1 0 1 1 1 1 1 1 2 1 1 0 0 0 0 1 2 3 2 2 2 2 1 -0 -4 -10 -13 -12 -17 -19 -20 -20 -19 -19
-6 -4 -3 0 2 2 1 -0 -1 -1 -0 -0 -0 -0 0 0 1 1 1 0 0 0 0 -0 0 -0 0 0 0 1 1 0 -2 -3 -6 -14 -21 -21 -20 -19 -19 -18 -17
-4 -3 -3 -0 2 2 1 -0 -1 -0 -0 -1 -1 -0 -0 -0 -0 0 0 0 0 0 -0 -0 -1 -0 -0 -0 -1 -3 -3 -4 -11 -18 -20 -20 -18 -18 -18 -18 -16 -13 -9
-5 -4 -3 -0 2 1 1 0 -1 -0 -1 -1 -1 -0 -0 -0 -0 -0 -0 -0 -0 -0 -1 -1 -3 -6 -9 -9 -6 -7 -10 -16 -20 -20 -18 -17 -17 -17 -16 -8 -6 -7 -12
-7 -4 -3 -2 2 1 1 0 -0 -1 -1 -1 -1 -1 -1 -1 -1 -0 -1 -1 -1 -2 -5 -10 -13 -16 -16 -16 -16 -17 -18 -18 -19 -17 -17 -15 -16 -9 -4 -6 -12 -10 -7
-9 -5 -4 -3 2 2 1 1 -0 -1 -1 -1 -1 -1 -1 -1 -1 -1 -1 -2 -6 -6 -8 -14 -16 -16 -16 -16 -17 -17 -18 -17 -14 -9 -14 -14 -9 -5 -8 -7 -7 -12 -14
-11 -7 -4 -3 1 2 1 1 0 -1 -1 -1 -1 -1 -1 -1 -1 -1 -2 -3 -3 -6 -12 -15 -16 -17 -16 -16 -17 -17 -16 -11 -6 -8 -8 -7 -6 -6 -8 -12 -16 -16 -15
-11 -10 -4 -4 -0 2 1 1 0 -0 -0 -1 -1 -1 -1 -1 -2 -3 -3 -4 -6 -12 -14 -14 -13 -11 -5 -6 -5 -2 -3 -5 -7 -7 -5 -5 -7 -12 -16 -17 -18 -17 -15

GFSMW_850_dewp_210.txt.gz
Dewpoint
-2 -1 -1 -2 -3 -3 -2 -1 -2 -3 -3 -3 -4 -6 -6 -4 -4 -2 -7 -6 -4 0 3 2 5 6 5 3 0 4 7 7 9 9 9 9 9 10 9 9 9 8 6
-1 -1 -2 -2 -1 -1 -2 -5 -5 -5 -5 -5 -5 -2 -0 0 0 -1 -4 -4 -4 -2 1 4 4 5 7 6 3 3 7 6 7 8 7 8 9 9 9 9 8 7 7
-1 -1 -1 -2 -5 -6 -5 -5 -5 -5 -5 -4 -3 -0 1 2 1 1 -1 -2 -0 -1 -0 1 6 5 5 8 7 4 7 7 6 9 7 7 7 7 8 8 8 9 8
-7 -6 -6 -5 -5 -5 -5 -5 -4 -2 -2 -1 1 2 3 3 3 3 3 2 2 1 1 3 5 5 5 7 6 6 6 7 6 6 8 7 6 7 7 7 8 8 7
-6 -6 -6 -5 -6 -6 -5 -2 -0 -0 -0 -0 1 2 3 3 3 3 3 3 3 3 1 3 5 4 4 5 6 6 5 6 6 6 7 7 7 6 6 6 7 7 8
-6 -6 -6 -7 -7 -5 -1 0 -1 -1 0 2 2 2 3 3 3 2 3 3 3 2 3 3 3 4 4 5 6 5 5 5 6 6 7 7 6 6 6 6 7 7 6
-6 -6 -6 -6 -6 -2 -0 0 -0 -0 1 2 2 2 3 3 4 3 4 4 4 4 2 3 3 3 3 4 5 5 5 4 5 6 6 7 7 6 5 6 6 6 5
-5 -5 -6 -6 -3 -2 -3 -0 -1 -0 1 1 1 1 1 2 2 3 3 4 4 4 4 3 3 3 3 3 4 6 6 5 4 5 5 6 7 7 7 4 5 5 4
-5 -6 -5 -5 -3 -4 -0 -0 -0 1 2 1 1 1 1 1 1 2 2 2 2 3 4 4 3 3 3 4 3 5 6 6 6 4 5 5 6 6 6 6 6 6 4
-6 -5 -5 -4 -4 -3 1 -0 0 1 2 2 1 0 0 0 1 1 1 1 2 3 4 3 3 2 3 3 4 4 5 5 6 5 4 5 5 6 6 6 6 4 5
-5 -5 -4 -3 -4 -2 1 -0 0 1 1 -0 1 1 1 2 2 2 2 3 4 3 3 3 3 4 4 4 4 4 5 5 5 5 4 5 4 5 6 6 6 5 6
-5 -5 -4 -4 -4 0 1 1 1 0 -1 -0 2 2 1 2 3 3 3 3 2 2 2 4 4 3 3 4 4 4 5 5 5 5 5 4 5 5 5 5 6 5 4
-7 -6 -6 -5 -2 1 1 1 0 -0 -1 0 2 3 3 3 3 3 3 2 2 2 4 4 3 3 4 4 4 5 5 5 5 3 5 5 4 5 5 5 4 5 4
-7 -6 -6 -4 -1 2 1 1 1 -0 0 2 2 2 3 3 3 3 2 2 1 2 4 3 4 3 4 4 5 5 5 5 4 5 5 5 5 5 5 5 5 4 4
-8 -8 -5 -3 -1 2 1 1 1 -0 -0 1 2 2 2 2 3 3 2 2 3 3 4 3 3 5 4 3 5 5 4 5 5 5 3 5 5 5 5 5 3 3 3
-9 -8 -6 -2 -1 1 1 1 0 -1 -1 1 1 2 2 2 2 2 2 2 2 3 3 3 3 3 3 5 3 5 4 5 5 4 3 4 4 5 4 4 4 3 2
-11 -8 -5 -2 0 1 1 0 -0 -1 -1 1 1 1 2 2 1 2 2 2 2 2 2 3 3 3 4 4 4 4 5 4 3 3 3 4 3 3 3 2 2 1 -2
-11 -8 -5 -3 -0 2 1 0 -1 -1 -1 0 1 1 1 2 2 2 1 1 1 1 2 2 2 3 3 3 3 2 4 4 4 3 3 3 2 2 -1 -5 -6 -6 -8
-9 -6 -4 -3 -0 2 2 1 -1 -2 -1 -0 1 1 1 2 1 1 1 0 -0 -0 1 1 2 2 2 3 3 3 3 3 2 2 2 1 -1 -11 -13 -14 -16 -21 -21
-8 -5 -4 -3 -1 2 1 0 -1 -2 -2 -0 0 0 0 1 1 1 0 0 0 -1 -0 -0 0 1 1 1 2 2 2 2 1 -4 -8 -12 -11 -16 -19 -20 -20 -19 -19
-16 -7 -5 -3 -1 2 1 0 -1 -2 -1 -0 -0 -0 -0 -0 -0 0 -0 -0 -0 -0 0 0 0 0 0 0 1 0 -1 -2 -4 -5 -8 -16 -20 -19 -19 -19 -18 -15 -10
-21 -11 -5 -4 -2 2 1 1 -0 -1 -1 -1 -1 -0 -0 -1 -0 -0 -0 -0 -0 -0 -0 -0 -0 -1 -2 -4 -4 -3 -3 -6 -12 -19 -20 -19 -18 -18 -17 -13 -8 -7 -12
-21 -17 -8 -4 -3 1 1 1 -0 -1 -1 -1 -1 -1 -1 -1 -1 -0 -0 -1 -1 -2 -4 -7 -10 -11 -11 -9 -10 -12 -16 -18 -20 -18 -17 -17 -17 -10 -6 -5 -11 -7 -4
-20 -21 -12 -7 -3 0 1 1 0 -1 -1 -1 -1 -1 -1 -1 -1 -1 -1 -2 -3 -9 -13 -16 -17 -16 -16 -17 -17 -18 -17 -17 -17 -17 -16 -13 -6 -6 -11 -7 -6 -9 -13
-20 -18 -13 -11 -4 -2 1 1 0 -0 -1 -1 -1 -1 -1 -1 -1 -1 -5 -6 -6 -9 -14 -15 -16 -16 -16 -16 -17 -17 -17 -13 -14 -15 -13 -8 -6 -7 -7 -8 -11 -15 -15
-18 -16 -15 -14 -4 -3 1 1 0 -0 -0 -1 -1 -1 -1 -2 -2 -5 -4 -5 -10 -13 -14 -15 -16 -17 -16 -16 -14 -12 -10 -9 -10 -10 -8 -7 -6 -6 -8 -15 -17 -16 -15

GFSMW_850_dewp_216.txt.gz
Dewpoint
-3 -3 -2 -2 -2 -3 -4 -3 -3 -4 -6 -6 -8 -10 -10 -9 -8 -7 -6 -4 -3 -2 -2 -4 -5 -3 -1 -1 3 6 6 3 0 6 6 7 7 7 7 7 4 8 8
-2 -1 -1 -2 -2 -3 -2 -2 -5 -6 -6 -7 -7 -6 -6 -6 -5 -3 -2 -1 0 -1 -2 -2 -3 -3 -1 2 2 5 7 7 3 8 7 7 6 6 9 9 8 8 8
-2 -1 -1 -1 -1 -1 -3 -5 -6 -6 -6 -5 -5 -6 -6 -4 -2 -1 -1 1 2 2 2 2 0 -0 -1 -1 2 5 7 7 7 7 7 6 6 5 7 9 9 8 9
-1 -1 -0 -0 -2 -5 -6 -7 -7 -5 -4 -4 -5 -4 -2 -1 -1 -0 0 1 1 2 2 3 3 2 2 3 5 7 8 8 6 6 6 6 7 6 5 5 6 7 9
-0 -0 -1 -5 -6 -7 -8 -7 -6 -6 -5 -4 -3 -2 -0 1 1 1 2 2 2 2 2 3 3 3 3 2 4 6 7 6 7 7 6 6 7 7 6 6 6 6 5
-2 -4 -5 -6 -7 -7 -6 -6 -7 -5 -4 -4 -1 1 1 1 1 1 1 1 2 2 2 3 3 3 3 3 2 4 6 6 6 7 6 6 6 7 6 6 6 6 6
-5 -6 -7 -7 -7 -6 -6 -6 -6 -3 -2 -1 -1 0 1 1 1 1 0 0 0 1 1 2 3 4 4 3 3 3 3 4 5 5 7 6 6 6 5 6 6 6 6
-6 -6 -7 -6 -5 -5 -6 -6 -4 -1 -1 -0 -0 -0 -1 -0 1 1 0 0 0 0 -0 0 2 3 4 4 4 3 3 3 4 4 6 6 6 6 6 5 5 6 6
-6 -6 -6 -5 -5 -5 -6 -4 -0 -0 -1 -1 -1 -1 1 1 1 2 2 2 2 2 2 1 1 1 2 2 4 4 4 4 3 3 4 6 6 6 6 5 5 4 5
-5 -5 -5 -5 -5 -5 -4 -0 0 -0 -1 -1 -1 -1 0 1 2 2 2 2 2 2 2 2 2 2 2 2 2 4 3 4 4 4 5 5 6 5 5 5 4 5 5
-5 -5 -6 -5 -5 -5 -2 -0 0 -0 -1 -1 -1 -0 1 1 1 3 2 2 3 2 1 0 1 1 1 2 3 2 2 3 3 4 4 5 5 6 5 5 5 5 4
-6 -7 -6 -5 -5 -3 -2 -0 0 -0 -1 -1 -1 1 1 2 3 2 2 2 1 -0 -0 1 1 0 1 3 3 4 3 3 3 3 3 4 5 5 5 6 4 5 5
-7 -6 -6 -6 -4 -4 -2 -0 0 -0 -1 -1 -1 0 1 1 2 2 1 1 1 0 2 3 2 1 2 4 4 4 4 3 3 3 3 4 5 5 6 4 4 5 5
-6 -7 -7 -5 -4 -2 -0 -0 -0 -0 -1 -1 -1 -0 1 2 2 2 1 2 1 1 2 3 3 4 4 3 4 4 4 4 3 3 3 4 4 6 5 5 3 5 5
-8 -8 -7 -6 -4 -2 -1 0 -0 -1 -1 -1 -1 -0 1 2 2 2 1 1 0 1 2 2 3 3 2 4 4 4 4 4 4 4 5 5 4 5 5 5 5 5 4
-9 -9 -7 -6 -5 -4 -0 1 1 -1 -1 -2 -2 -1 1 1 1 1 0 0 1 1 2 2 2 2 3 3 4 4 4 4 4 5 4 4 2 4 5 4 4 4 4
-12 -9 -7 -6 -4 -3 0 1 1 -0 -1 -2 -2 -1 1 1 1 1 1 1 1 1 2 2 2 3 3 3 3 4 4 4 4 4 3 3 3 3 3 4 4 3 3
-8 -6 -5 -4 -3 -3 0 0 1 0 -1 -2 -2 -1 1 1 1 1 1 1 0 1 1 2 2 2 3 3 3 3 4 3 3 3 3 3 3 2 3 3 3 1 2
-10 -8 -8 -6 -4 -3 0 1 1 0 -1 -2 -2 -0 0 0 0 1 0 0 -0 0 1 1 2 2 2 2 2 3 3 3 3 3 2 2 2 2 2 2 2 1 1
-21 -21 -19 -12 -5 -3 -1 1 1 0 -1 -2 -1 -0 -0 -0 0 0 0 -0 -0 -0 0 1 1 1 1 1 2 3 3 3 2 2 1 -1 -1 -5 -7 -5 -5 -5 -8
-19 -19 -21 -20 -12 -5 -2 0 1 0 -1 -2 -1 -0 -1 -0 -0 -0 -0 -0 -0 -0 0 0 0 0 0 0 1 1 1 1 1 -2 -8 -16 -19 -19 -19 -19 -19 -20 -20
-17 -17 -17 -18 -19 -13 -5 -2 1 0 -1 -2 -1 -1 -1 -1 -0 -0 -0 -0 -1 -0 -0 -0 -0 0 -1 -4 -6 -6 -6 -7 -8 -12 -17 -18 -19 -19 -19 -18 -14 -10 -9
-16 -16 -17 -17 -18 -16 -15 -5 -1 0 -1 -1 -1 -1 -1 -1 -1 -1 -1 -2 -7 -8 -7 -5 -5 -5 -4 -8 -9 -10 -12 -16 -19 -19 -19 -18 -17 -13 -9 -9 -11 -10 -8
-16 -16 -16 -17 -17 -18 -18 -14 -3 0 -0 -1 -1 -1 -1 -1 -1 -1 -2 -8 -13 -15 -14 -12 -13 -13 -14 -16 -18 -19 -20 -19 -18 -18 -17 -13 -8 -8 -11 -9 -5 -6 -8
-16 -16 -16 -17 -18 -19 -19 -18 -4 -0 -0 -1 -1 -1 -1 -1 -2 -3 -4 -10 -13 -14 -16 -17 -17 -17 -18 -17 -16 -16 -17 -17 -17 -14 -7 -6 -9 -9 -6 -7 -8 -11 -13
-16 -16 -16 -16 -18 -20 -18 -18 -6 -1 -0 -1 -1 -1 -1 -2 -2 -4 -7 -12 -15 -15 -15 -16 -17 -17 -17 -15 -13 -15 -15 -15 -12 -7 -6 -7 -8 -8 -6 -7 -10 -15 -15

GFSMW_850_dewp_219.txt.gz
Dewpoint
-3 -2 -2 -3 -3 -3 -3 -3 -3 -4 -7 -9 -11 -11 -11 -10 -9 -8 -6 -4 -3 -3 -2 -2 -2 -2 -4 -4 -1 1 3 3 3 2 0 1 5 8 8 7 5 3 3
-3 -2 -1 -2 -2 -2 -3 -2 -4 -7 -8 -9 -9 -9 -9 -9 -8 -6 -4 -2 -2 -1 -0 -0 -1 -1 -1 -2 -0 2 6 6 6 5 6 7 6 5 7 6 5 5 6
-3 -1 -1 -2 -2 -2 -2 -4 -6 -8 -8 -8 -8 -8 -8 -8 -6 -4 -2 -1 0 1 2 2 2 2 1 1 0 0 7 6 7 7 5 6 6 5 4 4 5 8 9
-2 -1 -1 -1 -1 -1 -4 -6 -7 -7 -8 -7 -7 -7 -6 -5 -3 -2 -1 -0 1 1 2 2 2 3 3 3 1 4 5 6 5 6 6 6 6 4 5 5 5 7 9
-2 -1 -1 -1 -1 -5 -6 -7 -6 -7 -6 -6 -5 -4 -3 -1 -1 -0 -1 -0 -0 1 2 2 2 2 3 3 3 2 3 5 5 5 6 5 5 5 6 5 5 5 4
-1 -1 -0 -2 -5 -7 -6 -6 -7 -7 -6 -5 -3 -2 -2 -1 -1 -1 -1 -1 -1 -0 -0 0 2 3 3 3 3 3 2 3 4 5 6 6 5 6 6 6 5 5 6
0 -1 -3 -5 -7 -6 -6 -7 -7 -6 -4 -3 -2 -2 -1 -1 -1 0 1 1 0 -0 -1 -0 -0 1 2 3 4 4 3 3 3 4 6 6 6 6 5 5 6 5 5
-3 -5 -6 -7 -6 -6 -7 -7 -7 -4 -3 -2 -2 -2 -2 -1 1 2 2 2 2 1 0 0 1 -0 -0 2 4 4 3 3 3 3 4 6 6 6 6 6 6 6 5
-5 -6 -6 -6 -5 -6 -6 -7 -5 -3 -2 -1 -1 -1 -2 -0 0 1 1 2 2 2 1 0 0 0 1 1 2 4 4 4 4 4 3 3 5 5 6 6 6 6 6
-5 -6 -6 -5 -5 -5 -6 -5 -4 -2 -1 -1 -1 -1 -1 0 1 2 3 1 1 2 1 -0 -0 -0 -0 1 2 3 3 3 4 4 4 4 4 5 5 6 6 6 6
-5 -6 -5 -4 -5 -5 -6 -5 -2 -1 -0 -1 -1 -1 -0 1 1 2 2 1 1 0 -0 -1 -1 0 1 0 1 1 2 2 3 3 4 3 3 4 4 5 6 6 6
-5 -5 -6 -5 -4 -6 -5 -3 -2 -1 -1 -1 -1 -1 0 1 1 2 2 1 -1 0 -0 -0 0 3 0 0 1 2 3 3 3 3 2 2 3 3 4 4 5 6 5
-6 -6 -6 -6 -6 -6 -4 -1 -1 -1 -1 -1 -1 -1 -0 0 1 2 1 -1 -1 -0 0 1 3 3 4 3 4 3 4 4 4 2 3 3 3 3 4 4 5 6 6
-6 -7 -7 -7 -6 -4 -2 -0 0 -0 -1 -1 -1 -2 -1 1 1 1 0 -2 -1 -0 1 1 2 3 3 3 3 3 3 4 3 3 3 3 3 3 4 4 5 5 5
-7 -9 -9 -8 -5 -4 -2 0 1 1 -1 -1 -1 -2 -1 1 1 1 -0 -2 0 1 1 2 2 2 3 3 4 3 4 4 4 3 3 3 3 4 4 5 4 4 4
-8 -9 -8 -6 -4 -4 -2 1 1 1 -1 -2 -2 -2 -1 1 1 1 -0 -1 0 0 1 2 2 3 3 3 3 3 4 3 4 4 4 4 4 4 4 4 5 5 4
-9 -10 -7 -7 -5 -4 -2 1 0 0 -1 -2 -2 -2 -1 1 1 1 0 0 0 1 1 1 2 3 3 3 3 3 4 3 4 4 3 4 4 3 3 4 4 4 4
-10 -8 -9 -7 -5 -4 -2 1 1 1 -0 -1 -2 -1 -0 1 1 1 0 0 1 1 1 1 2 2 2 2 3 3 3 2 3 2 3 3 3 2 3 3 3 2 2
-8 -11 -14 -11 -8 -5 -3 -1 0 1 -1 -1 -2 -1 0 0 0 0 0 0 0 0 1 1 2 2 2 2 2 3 3 3 2 2 2 2 2 1 1 2 1 0 0
-20 -20 -20 -20 -19 -13 -5 -2 -1 1 -0 -1 -2 -1 -0 0 0 0 0 -0 -0 -0 0 0 1 2 1 2 2 2 3 2 2 2 1 -0 -3 -4 -1 -0 1 0 -2
-17 -18 -16 -12 -18 -19 -17 -8 -2 0 0 -1 -1 -1 -0 0 -0 -0 -0 -0 -0 -0 -0 -0 -0 0 1 1 1 1 0 -0 0 -2 -11 -17 -17 -17 -16 -13 -12 -17 -18
-16 -17 -17 -16 -14 -17 -19 -20 -8 -1 0 -0 -1 -1 -0 -0 -1 -0 -0 -1 -1 -1 -2 -1 -0 -1 -2 -6 -6 -6 -7 -6 -8 -16 -18 -19 -19 -19 -19 -17 -16 -16 -16
-16 -16 -16 -16 -16 -17 -19 -20 -20 -4 -0 -0 -1 -1 -1 -1 -1 -1 -1 -5 -9 -8 -8 -6 -6 -7 -9 -9 -10 -12 -16 -18 -19 -18 -18 -17 -13 -10 -10 -10 -10 -8 -8
-16 -16 -16 -16 -16 -16 -17 -19 -20 -11 -2 -0 -1 -1 -1 -1 -1 -1 -4 -10 -14 -14 -13 -13 -12 -14 -17 -18 -19 -19 -19 -18 -18 -16 -11 -8 -9 -11 -8 -6 -6 -8 -10
-13 -15 -16 -15 -14 -15 -15 -19 -19 -16 -4 -0 -1 -1 -2 -2 -2 -2 -5 -11 -13 -16 -16 -16 -16 -16 -17 -16 -16 -17 -17 -17 -11 -6 -7 -9 -9 -7 -7 -8 -10 -11 -13
-17 -18 -20 -18 -16 -16 -17 -19 -18 -17 -5 -0 -1 -1 -1 -2 -2 -4 -6 -13 -14 -15 -16 -16 -16 -16 -16 -15 -15 -15 -16 -10 -7 -6 -6 -7 -7 -6 -5 -7 -9 -14 -16

GFSMW_850_dewp_222.txt.gz
Dewpoint
-1 -2 -2 -3 -3 -3 -3 -3 -3 -4 -6 -8 -9 -9 -9 -9 -9 -8 -7 -5 -4 -3 -2 -2 -2 -2 -2 -2 -3 -2 0 3 3 3 2 -1 -3 -3 2 3 6 6 4
-1 -1 -2 -3 -3 -3 -3 -3 -3 -5 -8 -9 -9 -9 -9 -9 -8 -7 -5 -3 -2 -2 -1 1 1 1 1 1 4 1 1 6 7 7 7 5 5 0 -0 5 7 7 6
-1 -1 -2 -2 -2 -2 -2 -2 -5 -7 -8 -9 -9 -9 -9 -8 -7 -5 -4 -3 -2 -1 -0 1 2 2 1 2 5 5 5 5 5 6 6 5 4 5 7 3 4 6 6
-1 0 -1 -2 -2 -2 -2 -3 -6 -7 -8 -8 -8 -8 -7 -6 -4 -3 -2 -2 -1 -1 0 1 2 2 2 2 4 5 5 6 6 6 5 5 6 5 5 5 4 3 5
-1 0 -1 -1 -1 -1 -3 -6 -7 -8 -8 -8 -7 -6 -5 -3 -3 -2 -2 -2 -2 -1 -1 -0 1 2 2 2 2 4 5 5 6 6 6 5 5 5 6 5 6 5 4
-1 0 -0 -1 -1 -3 -5 -6 -7 -8 -7 -5 -5 -4 -4 -3 -2 -1 -1 0 0 0 -0 -0 -0 -0 0 1 2 3 3 4 5 4 4 5 6 6 6 6 5 6 5
-1 -0 -1 -1 -3 -5 -6 -6 -7 -7 -5 -4 -4 -4 -3 -2 -2 -1 -0 1 1 1 1 1 0 0 0 -0 0 2 4 4 4 4 5 4 5 5 6 6 6 6 6
-1 -1 -1 -3 -5 -6 -6 -7 -7 -5 -5 -4 -4 -3 -2 -2 -1 -1 0 1 0 -0 0 1 0 -0 -0 0 1 1 3 3 4 3 3 2 4 4 6 6 6 6 6
-1 -1 -3 -5 -6 -5 -7 -7 -7 -6 -4 -3 -3 -2 -2 -1 -1 1 1 2 1 0 0 -0 -1 -1 -1 -1 0 1 2 3 4 4 4 4 4 4 3 6 5 6 6
-3 -4 -5 -5 -5 -6 -7 -6 -6 -5 -4 -3 -2 -2 -1 -0 0 1 1 1 1 0 -1 -1 -1 -1 -0 1 1 0 1 2 3 3 3 3 4 3 3 3 5 5 6
-4 -3 -5 -4 -5 -5 -6 -7 -6 -5 -5 -3 -3 -2 -1 -0 1 1 1 1 0 -1 -1 -0 -1 -0 1 1 0 0 -0 1 2 3 3 3 4 3 3 3 4 4 5
-4 -5 -5 -4 -4 -5 -6 -6 -6 -4 -2 -2 -2 -2 -1 -0 0 1 1 0 -0 -2 -1 -1 -1 1 3 3 2 1 3 3 3 3 3 3 3 3 3 3 3 3 4
-4 -5 -6 -5 -5 -6 -6 -6 -4 -1 -1 -1 -2 -2 -2 -1 0 1 1 -0 -2 -2 -0 0 0 1 2 2 3 3 3 3 3 4 4 3 3 3 2 3 3 3 4
-5 -5 -5 -6 -6 -6 -6 -5 -2 0 0 -1 -2 -2 -2 -1 0 1 1 -1 -2 -1 -0 0 1 2 2 2 3 3 4 4 4 4 3 3 3 3 3 4 4 4 4
-4 -6 -7 -8 -8 -6 -6 -3 0 1 0 -1 -2 -2 -2 -1 0 1 0 -1 -1 0 -0 1 1 2 2 3 3 4 4 4 4 4 3 3 3 3 3 4 3 4 4
-5 -8 -9 -9 -8 -6 -4 -1 0 -1 -0 -1 -2 -2 -2 -1 0 1 0 -1 -1 0 1 1 2 2 3 3 3 3 3 3 3 4 4 4 4 4 4 4 4 4 4
-7 -9 -10 -9 -6 -4 -3 -1 -0 0 1 -1 -2 -2 -1 -0 0 0 0 -0 0 1 1 2 2 2 2 3 3 3 3 3 3 3 3 3 3 4 3 3 3 3 4
-9 -10 -8 -8 -6 -6 -4 -3 -1 -0 0 -1 -2 -2 -1 0 0 0 0 -0 1 1 1 1 2 2 2 2 3 3 3 3 3 3 2 3 2 2 2 3 3 3 3
-6 -7 -9 -10 -9 -8 -7 -5 -3 -1 -1 -0 -1 -2 -1 0 0 0 0 -0 0 1 1 1 1 2 2 2 2 3 3 2 2 2 2 2 1 1 1 2 1 1 1
-15 -16 -18 -17 -18 -19 -20 -17 -8 -3 -1 0 -1 -1 -1 -0 -0 -0 -0 -0 0 0 0 0 1 1 1 1 1 2 2 2 1 1 -0 -4 -4 -1 0 0 0 0 0
-18 -17 -15 -14 -12 -8 -12 -19 -20 -12 -3 -0 -0 -1 -1 -0 -0 -1 -1 -1 -1 -0 -0 -0 -0 0 1 1 -1 -1 -1 -1 -2 -9 -16 -17 -14 -13 -9 -6 -7 -10 -10
-16 -16 -16 -16 -16 -15 -13 -17 -18 -20 -9 -3 0 -0 -1 -1 -1 -1 -1 -1 -3 -2 -3 -1 -2 -1 -2 -6 -6 -6 -6 -12 -17 -18 -19 -19 -19 -18 -18 -17 -17 -16 -13
-16 -16 -16 -16 -16 -15 -15 -15 -16 -19 -19 -5 -0 -1 -1 -1 -1 -1 -1 -5 -9 -8 -7 -6 -6 -8 -9 -10 -13 -16 -18 -18 -18 -18 -15 -11 -10 -10 -9 -8 -8 -8 -10
-14 -14 -15 -16 -16 -15 -15 -14 -15 -18 -19 -9 -1 -1 -1 -1 -2 -1 -2 -7 -13 -12 -11 -11 -13 -17 -18 -19 -18 -18 -18 -18 -13 -9 -9 -11 -9 -6 -6 -7 -10 -11 -12
-19 -18 -17 -14 -12 -14 -15 -16 -16 -18 -18 -15 -3 -1 -1 -2 -2 -2 -3 -9 -13 -15 -15 -15 -16 -17 -17 -17 -17 -17 -16 -10 -7 -7 -10 -8 -7 -7 -7 -8 -10 -13 -15
-14 -13 -15 -18 -18 -18 -18 -19 -19 -18 -17 -17 -6 -1 -1 -2 -2 -3 -3 -11 -13 -15 -16 -16 -16 -16 -16 -16 -16 -16 -9 -6 -7 -7 -7 -7 -6 -5 -6 -10 -14 -15 -16

GFSMW_850_dewp_225.txt.gz
Dewpoint
-3 -0 -0 0 -2 -3 -3 -3 -4 -4 -5 -8 -9 -9 -9 -9 -9 -9 -8 -7 -6 -5 -4 -1 1 2 3 5 5 4 -2 -2 -1 7 5 3 3 -0 -6 -5 3 8 9
-2 0 0 -0 -2 -3 -3 -3 -3 -4 -7 -9 -9 -9 -9 -9 -8 -7 -6 -4 -4 -3 -2 -1 1 2 3 5 5 6 6 6 7 5 6 6 4 5 4 0 -3 2 7
-2 0 1 0 1 -2 -3 -3 -3 -5 -8 -9 -9 -9 -8 -6 -1 -4 -4 -4 -3 -3 -2 -1 2 4 4 4 5 5 5 6 6 6 6 6 4 4 4 6 3 6 7
-2 -0 1 1 1 -2 -2 -3 -3 -7 -8 -8 -8 -8 -8 -7 -6 -4 -3 -3 -2 -2 -2 -1 -0 1 3 4 4 5 5 5 5 5 6 5 6 7 5 7 5 4 4
-3 -1 1 1 1 -1 -2 -2 -5 -7 -8 -8 -7 -8 -7 -6 -5 -3 -2 0 1 2 1 0 -0 -0 0 1 3 5 5 4 5 5 5 6 5 4 5 5 4 6 5
-3 -1 0 1 2 -1 -2 -4 -6 -7 -8 -7 -8 -7 -7 -6 -4 -2 0 2 2 2 3 2 1 1 2 3 3 3 4 3 4 4 4 5 6 6 6 6 6 5 4
-4 -1 1 1 3 -1 -3 -5 -7 -8 -8 -7 -7 -6 -6 -5 -3 -1 1 -1 2 2 3 1 -0 -0 -1 -0 0 2 4 3 5 4 4 4 5 5 6 5 6 6 5
-5 -0 1 2 3 -0 -3 -5 -7 -6 -7 -6 -6 -6 -6 -5 -3 -2 -1 0 1 2 2 1 0 -1 -1 -1 -1 -1 0 3 4 4 4 4 3 3 3 4 4 5 6
-3 0 1 2 2 -2 -4 -6 -7 -7 -6 -7 -7 -6 -4 -2 -1 -1 1 2 1 2 1 -0 -0 -0 1 1 1 1 0 2 4 4 3 4 4 5 4 4 3 5 6
-1 0 1 2 1 -3 -6 -7 -7 -7 -7 -7 -6 -6 -3 0 1 1 1 1 1 1 -0 -1 -1 -1 -0 0 2 1 -0 1 1 3 3 3 3 4 4 4 4 3 4
-1 0 1 1 -2 -5 -6 -7 -7 -7 -7 -5 -4 -4 -3 0 0 -0 1 1 0 -0 -1 -2 -1 -1 -1 1 2 3 2 2 1 2 2 3 4 3 4 4 3 3 2
-2 -0 1 0 -3 -4 -6 -6 -7 -6 -4 -3 -2 -2 -2 -0 0 -0 0 1 0 -1 -2 -1 -1 -0 0 1 2 3 3 3 3 3 3 3 3 4 4 3 3 3 3
-3 -1 1 -0 -1 -4 -5 -6 -6 -5 -2 -1 -1 -2 -1 -1 -0 -1 0 1 -0 -2 -2 -1 -1 -0 1 1 2 2 3 3 3 3 3 3 4 4 3 3 3 3 3
-3 -2 -0 -0 -0 -2 -4 -6 -6 -4 -1 -1 -1 -2 -2 -1 -2 -0 0 1 -1 -2 -1 -1 -1 1 1 2 2 3 4 4 4 3 4 4 3 3 3 3 3 4 4
-3 -3 -3 -2 -0 -2 -6 -7 -5 -2 -3 -1 -1 -2 -2 -2 -1 -0 1 0 -1 -2 -0 -0 1 2 2 3 3 3 3 4 3 3 4 3 3 3 3 3 3 3 4
-4 -4 -4 -3 -1 -5 -7 -6 -3 -2 -1 -0 -1 -2 -2 -2 -1 -0 1 0 -1 0 1 1 2 2 2 3 3 3 3 3 3 3 3 3 4 4 4 4 4 3 4
-4 -5 -5 -4 -3 -8 -8 -6 -3 -1 -1 -0 -0 -2 -2 -1 -0 0 0 -0 0 1 1 1 2 2 2 2 3 3 3 3 3 3 3 2 2 3 3 3 3 3 3
-5 -5 -3 -3 -9 -10 -9 -8 -6 -5 -3 -1 -1 -1 -2 -1 0 0 -0 -0 -0 1 1 1 1 2 2 2 2 2 2 3 3 2 2 1 1 2 2 2 2 2 2
-4 -2 -3 -5 -8 -13 -15 -14 -13 -10 -4 -2 -1 -1 -1 -1 0 -0 -0 -0 -0 0 0 1 1 1 2 2 2 2 3 2 2 1 1 0 -0 0 1 1 1 1 0
-4 -8 -10 -14 -18 -18 -18 -19 -19 -18 -10 -4 -2 -0 -1 -1 -0 -0 -1 -1 -1 -0 -0 0 0 1 1 1 1 1 1 1 -1 -4 -8 -6 -4 -1 -1 -0 -0 -1 -1
-14 -15 -16 -15 -12 -14 -14 -15 -16 -16 -19 -14 -5 -1 -0 -1 -0 -1 -1 -1 -1 -1 -1 -1 -1 -0 0 -0 -1 -1 -2 -4 -12 -17 -18 -17 -16 -12 -11 -14 -15 -16 -14
-14 -16 -15 -15 -16 -16 -15 -15 -15 -14 -16 -19 -10 -5 -0 -1 -1 -1 -1 -1 -3 -5 -4 -3 -5 -3 -2 -6 -8 -8 -12 -16 -19 -19 -18 -16 -15 -14 -13 -9 -8 -8 -9
-14 -15 -15 -13 -15 -15 -15 -15 -14 -14 -16 -18 -17 -8 -0 -1 -1 -1 -2 -2 -7 -8 -7 -6 -7 -9 -10 -13 -17 -18 -18 -18 -16 -11 -10 -10 -9 -7 -6 -7 -9 -11 -12
-12 -13 -14 -14 -14 -15 -16 -15 -14 -15 -16 -18 -18 -12 -1 -1 -1 -2 -2 -3 -5 -12 -10 -10 -12 -17 -18 -18 -18 -18 -17 -10 -8 -10 -10 -7 -6 -7 -8 -10 -11 -12 -13
-12 -12 -12 -15 -15 -15 -14 -13 -14 -16 -16 -18 -18 -16 -5 -1 -2 -2 -2 -3 -6 -13 -14 -13 -15 -17 -17 -18 -18 -16 -11 -7 -8 -10 -8 -6 -6 -6 -6 -9 -12 -14 -15
-12 -11 -11 -13 -16 -14 -15 -15 -15 -15 -17 -20 -18 -17 -9 -1 -2 -2 -3 -4 -8 -14 -14 -15 -15 -16 -16 -16 -16 -11 -7 -7 -7 -7 -6 -4 -4 -7 -11 -14 -14 -14 -14